Location: Carri�res
(48.9069°N, 2.1792°E)
Time: 20:15:13
(UTC+00:00)

deb Kosmos- 1898 - Pass Details

Date: 26 July 2021
Orbit: 731 x 754 km, 74.0° (Epoch: 17 September)

Event Time Altitude Azimuth Distance (km) Brightness Sun altitude
Exits shadow 03:16:09 - 199° (SSW) 2,440 ? -8.7°
Reaches altitude 10° 03:16:39 10° 199° (SSW) 2,244 ? -8.7°
Maximum altitude 03:21:44 85° 113° (ESE) 753 ? -8.1°
Drops below altitude 10° 03:26:55 10° 24° (NNE) 2,275 ? -7.4°
Sets 03:29:17 0° 24° (NNE) 3,207 ? -7.1°
